Weather in Bologna

Italy     44°30′17″N   11°20′42″E
temp.,
°C
wind,
m/s
gust,
m/s
humid.,
%
clouds,
%
prec.,
mm/h
press.,
hPa
HPBL,
m
24 may, tue
tue2423:00+19sw33625 0.0 100637
02:00+16sw33655 0.0 100529
05:00+15wsw2273100 0.0 100627
08:00+19wsw237161 0.0 1007194
11:00+22nw326274 0.0 1007639
14:00+26nne225568 0.0 10071077
17:00+26n2156100 0.0 1005946
20:00+23nne1274100 0.1 100638
25 may, wed
wed2523:00+18sw457855 0.0 100879
02:00+16ssw338032 0.0 100945
05:00+15sw22865 0.0 101019
08:00+19w22745 0.0 1012190
11:00+23nnw32669 0.0 1014779
14:00+25n3260100 0.0 10131097
17:00+26nnw226077 0.2 10131008
20:00+23ene127549 0.6 101419
26 may, thu
thu2623:00+19ssw118899 0.0 101712
02:00+19wsw1187100 0.0 101811
05:00+16w01935 0.3 101911
08:00+19ne018851 0.3 1020231
11:00+23ene236931 0.0 1020889
14:00+26ene225779 0.0 10201384
17:00+27e2260100 0.0 1019964
20:00+22ese2280100 0.0 101839
27 may, fri
fri2723:00+19sse228629 0.0 101918
02:00+18s118897 0.0 101911
05:00+17sse119045 0.0 101912
08:00+21n0078100 0.0 1019169
11:00+24nne216527 0.0 1019626
14:00+27nne1156100 0.0 1017915
17:00+28ne115074 0.0 1015942
20:00+24sse4573100 0.1 101494
28 may, sat
sat2823:00+20s2267100 0.1 101419
02:00+20wsw2269100 0.1 101323
05:00+17se1180100 0.0 101211
08:00+21w117530 0.1 1012123
11:00+25nne22665 0.1 1011695
14:00+28ene22555 0.1 10101346
17:00+28e43530 0.1 10071116
20:00+20e488897 3.9 1008227